Change the Weather History Date:

Tuesday, May 6, 2014

  Actual Average Record
Temperature  
Mean Temperature 61 °F 60 °F  
Max Temperature 72 °F 70 °F 89 °F (1949)
Min Temperature 49 °F 49 °F 37 °F (1917)
Degree Days  
Heating Degree Days 4 6  
Month to date heating degree days 30 40  
Since 1 July heating degree days 5079 4709  
Cooling Degree Days 0 1  
Month to date cooling degree days 3 6  
Year to date cooling degree days 10 18  
Growing Degree Days 11 (Base 50)    
Moisture  
Dew Point 35 °F    
Average Humidity 46    
Maximum Humidity 66    
Minimum Humidity 26    
Precipitation  
Precipitation T in 0.12 in 1.90 in (1991)
Month to date precipitation 0.38 0.70  
Year to date precipitation 19.62 13.81  
Snow  
Snow 0.00 in 0.00 in 0.00 in (1894)
Month to date snowfall 0.0 0.0  
Since 1 July snowfall 56.1 20.2  
Snow Depth 0.00 in    
Sea Level Pressure  
Sea Level Pressure 29.96 in    
Wind  
Wind Speed 6 mph (NW)    
Max Wind Speed 18 mph    
Max Gust Speed 23 mph    
Visibility 10 miles    
Events Rain    
T = Trace of Precipitation, MM = Missing Value Source: NWS Daily Summary

Daily Weather History Graph

Daily Weather History Graph

Search for Another Location

Airport or City:

Trip Planner

Search our weather history database for the weather conditions in past years. The results will help you decide how hot, cold, wet, or windy it might be!

Date:

Astronomy

May. 06, 2014 Rise Set
Actual Time 5:57 AM EDT 8:01 PM EDT
Civil Twilight 5:27 AM EDT 8:31 PM EDT
Nautical Twilight 4:51 AM EDT 9:07 PM EDT
Astronomical Twilight 4:12 AM EDT 9:46 PM EDT
Moon 12:10 PM EDT (5/6) 1:19 AM EDT (5/6)
Length of Visible Light 15h 03m
Length of Day
14h 04m
Waxing Crescent, 46% of the Moon is Illuminated
May 6
Waxing Crescent
May 6
First Quarter
May 14
Full
May 21
Last Quarter
May 28
New

Hourly Weather History & Observations

Time (EDT) Temp. Dew Point Humidity Pressure Visibility Wind Dir Wind Speed Gust Speed Precip Events Conditions
12:51 AM 52.0 °F 37.9 °F 59% 29.91 in 10.0 mi Calm Calm - N/A   Clear
1:51 AM 52.0 °F 39.0 °F 61% 29.91 in 10.0 mi West 5.8 mph - N/A   Clear
2:51 AM 51.1 °F 39.9 °F 66% 29.91 in 10.0 mi WSW 5.8 mph - N/A   Mostly Cloudy
3:51 AM 52.0 °F 41.0 °F 66% 29.92 in 10.0 mi Calm Calm - 0.00 in Rain Light Rain
7:51 AM 57.2 °F 33.8 °F 41% 29.97 in 10.0 mi Calm Calm - N/A   Scattered Clouds
8:51 AM 60.1 °F 30.9 °F 33% 29.98 in 10.0 mi Calm Calm - N/A   Clear
10:51 AM 64.0 °F 30.0 °F 28% 29.97 in 10.0 mi East 4.6 mph - N/A   Clear
11:51 AM 66.0 °F 32.0 °F 28% 29.96 in 10.0 mi Calm Calm - N/A   Clear
12:51 PM 68.0 °F 36.0 °F 31% 29.94 in 10.0 mi NW 9.2 mph - N/A   Clear
1:51 PM 70.0 °F 36.0 °F 29% 29.94 in 10.0 mi Variable 6.9 mph 19.6 mph N/A   Clear
2:51 PM 71.1 °F 37.9 °F 30% 29.92 in 10.0 mi NNW 12.7 mph - N/A   Clear
3:51 PM 71.1 °F 36.0 °F 28% 29.93 in 10.0 mi NNW 16.1 mph 21.9 mph N/A   Clear
4:51 PM 71.1 °F 35.1 °F 27% 29.93 in 10.0 mi NW 12.7 mph 21.9 mph N/A   Clear
5:51 PM 70.0 °F 33.1 °F 26% 29.95 in 10.0 mi WNW 9.2 mph 21.9 mph N/A   Clear
6:51 PM 68.0 °F 35.1 °F 30% 29.96 in 10.0 mi WNW 9.2 mph - N/A   Clear
7:51 PM 66.0 °F 35.1 °F 32% 29.98 in 10.0 mi West 5.8 mph - N/A   Clear
8:51 PM 63.0 °F 35.1 °F 35% 30.00 in 10.0 mi WSW 4.6 mph - N/A   Clear
9:51 PM 57.9 °F 37.0 °F 46% 30.04 in 10.0 mi NNE 10.4 mph - N/A   Clear
10:51 PM 57.9 °F 35.1 °F 42% 30.06 in 10.0 mi NE 9.2 mph - N/A   Clear
11:51 PM 57.0 °F 34.0 °F 42% 30.08 in 10.0 mi NE 8.1 mph - N/A   Clear